User: anonymous   Login
Location: Luz Observatory
(34.5000°N, 117.2833°W)
Time: 20:33:59
(UTC-08:00)
Language:

Cosmos 1452 Rocket - Orbit

View from above orbital plane
View from above orbital plane
View from above satellite
View from above satellite

Ground track
Ground track

The orbit data is extracted from the following two-line orbital elements,

1 13992U 83031B   17055.57107714  .00000045  00000-0  24390-4 0  9990
2 13992  74.0524 213.6876 0005825 230.7975 197.0963 14.36074478772649
Epoch (UTC): 24 February 2017 13:42:21
Eccentricity: 0.0005825
inclination: 74.0524°
perigee height: 767 km
apogee height: 775 km
right ascension of ascending node: 213.6876°
argument of perigee: 230.7975°
revolutions per day: 14.36074478
mean anomaly at epoch: 197.0963°
orbit number at epoch: 77264

The dashed part of the orbit path shows where the satellite is in the earth's shadow,  

DLR